Location: Aulagny
(45.1643°N, 4.3096°E)
Time: 11:13:44
(UTC+00:00)

ATLAS CENTAUR R/B - Pass Details

Date: 21 October 2019
Orbit: 456 x 692 km, 64.6° (Epoch: 31 October)

Event Time Altitude Azimuth Distance (km) Brightness Sun altitude
Rises 20:03:38 0° 329° (NNW) 2,927 5.7 -34.7°
Reaches altitude 10° 20:06:10 10° 338° (NNW) 1,976 4.6 -35.1°
Enters shadow 20:06:23 11° 339° (NNW) 1,895 4.5 -35.2°
